Weather History for PATC - March, 2014

Change the Weather History Date:

Tuesday, March 4, 2014

  Actual Average Record
Temperature  
Mean Temperature -8 °F -  
Max Temperature -5 °F 8 °F 32 °F (2013)
Min Temperature -11 °F 0 °F -20 °F (2012)
Degree Days  
Heating Degree Days 73    
Moisture  
Dew Point -11 °F    
Average Humidity 84    
Maximum Humidity 92    
Minimum Humidity 77    
Precipitation  
Precipitation 0.00 in - - ()
Sea Level Pressure  
Sea Level Pressure 30.29 in    
Wind  
Wind Speed 29 mph (NE)    
Max Wind Speed 31 mph    
Max Gust Speed 38 mph    
Visibility 2 miles    
Events Fog , Snow    
Averages and records for this station are not official NWS values.
T = Trace of Precipitation, MM = Missing Value Source: NWS Daily Summary

Daily Weather History Graph

Daily Weather History Graph

Search for Another Location

Airport or City:

Trip Planner

Search our weather history database for the weather conditions in past years. The results will help you decide how hot, cold, wet, or windy it might be!

Date:

Astronomy

Mar. 04, 2014 Rise Set
Actual Time 9:10 AM AKST 7:37 PM AKST
Civil Twilight 8:20 AM AKST 8:27 PM AKST
Nautical Twilight 7:22 AM AKST 9:26 PM AKST
Astronomical Twilight 6:21 AM AKST 10:28 PM AKST
Moon 9:27 AM AKST (3/4) 12:22 AM AKST (3/4)
Length of Visible Light 12h 07m
Length of Day
10h 26m
Waxing Crescent, 16% of the Moon is Illuminated
Mar 4
Waxing Crescent
Mar 8
First Quarter
Mar 16
Full
Mar 23
Last Quarter
Mar 30
New

Hourly Weather History & Observations

Time (AKST) Temp. Windchill Dew Point Humidity Pressure Visibility Wind Dir Wind Speed Gust Speed Precip Events Conditions
12:13 AM -9.4 °F - -13.0 °F 84% 30.34 in 2.0 mi North - - N/A   Partly Cloudy
12:33 AM -9.4 °F - -13.0 °F 84% 30.32 in 2.5 mi North - - N/A   Scattered Clouds
12:55 AM -9.2 °F - -13.0 °F 83% 30.30 in 1.8 mi North - - N/A   Scattered Clouds
1:53 AM -9.4 °F - -13.0 °F 84% 30.31 in 3.0 mi North - - N/A   Partly Cloudy
1:55 AM -9.6 °F - -13.2 °F 84% 30.30 in 4.0 mi North - - N/A   Partly Cloudy
2:55 AM -9.4 °F - -13.5 °F 82% 30.30 in 7.0 mi North - - N/A   Clear
3:13 AM -9.4 °F - -13.0 °F 84% 30.30 in 2.5 mi North - - N/A   Partly Cloudy
3:33 AM -9.4 °F - -13.0 °F 84% 30.29 in 4.0 mi North - - N/A   Partly Cloudy
3:55 AM -9.6 °F - -13.5 °F 83% 30.30 in 6.0 mi North - - N/A   Clear
4:55 AM -9.8 °F - -13.7 °F 83% 30.31 in 4.0 mi North - - N/A   Clear
5:33 AM -9.4 °F - -14.8 °F 77% 30.32 in 2.5 mi North - - N/A   Partly Cloudy
5:53 AM -11.2 °F - -14.8 °F 84% 30.33 in 2.0 mi North - - N/A Snow Light Snow Showers
5:55 AM -10.7 °F - -14.3 °F 84% 30.33 in 2.0 mi North - - 0.00 in Snow Light Snow Showers
6:13 AM -9.4 °F - -13.0 °F 84% 30.32 in 1.8 mi North - - N/A Snow Light Snow Showers
6:53 AM -9.4 °F - -13.0 °F 84% 30.31 in 1.0 mi North - - N/A Snow Light Snow
6:55 AM -9.6 °F - -13.0 °F 85% 30.31 in 1.0 mi North - - 0.00 in Snow Light Snow
7:13 AM -9.4 °F - -13.0 °F 84% 30.30 in 0.8 mi North - - N/A Snow Light Snow
7:26 AM -9.4 °F -38.6 °F -13.0 °F 84% 30.29 in 0.8 mi NE 29.9 mph 38.0 mph N/A Snow Light Snow
7:55 AM -9.4 °F -37.3 °F -13.0 °F 84% 30.29 in 1.0 mi NE 26.5 mph 36.8 mph N/A Snow Light Snow
8:55 AM -9.4 °F -39.0 °F -13.0 °F 84% 30.29 in 1.5 mi NNE 31.1 mph 36.8 mph N/A Snow Light Snow
9:14 AM -9.4 °F - -13.0 °F 84% 30.30 in 3.0 mi North - - N/A Snow Light Snow Showers
9:39 AM -9.4 °F - -11.2 °F 92% 30.30 in 0.5 mi North - - N/A Fog , Snow Light Snow Showers
9:55 AM -8.5 °F - -12.1 °F 84% 30.31 in 1.8 mi North - - 0.00 in Snow Light Snow Showers
10:04 AM -7.6 °F - -11.2 °F 84% 30.30 in 1.8 mi North - - N/A Snow Light Snow Showers
10:24 AM -7.6 °F - -11.2 °F 84% 30.30 in 1.0 mi North - - N/A Snow Light Snow Showers
10:44 AM -7.6 °F - -11.2 °F 84% 30.30 in 0.8 mi North - - N/A Snow Light Snow Showers
10:55 AM -8.0 °F - -11.6 °F 84% 30.30 in 0.8 mi North - - 0.00 in Snow Light Snow Showers
11:24 AM -7.6 °F - -11.2 °F 84% 30.31 in 1.0 mi North - - N/A Snow Light Snow
11:44 AM -7.6 °F - -11.2 °F 84% 30.32 in 2.5 mi North - - N/A Snow Light Snow
11:55 AM -7.1 °F - -10.5 °F 85% 30.33 in 2.5 mi North - - N/A   Scattered Clouds
12:05 PM -5.8 °F - -9.4 °F 84% 30.33 in 3.0 mi North - - N/A   Partly Cloudy
12:25 PM -5.8 °F - -9.4 °F 84% 30.32 in 2.0 mi North - - N/A   Partly Cloudy
12:45 PM -5.8 °F - -9.4 °F 84% 30.33 in 1.5 mi North - - N/A Snow Light Snow Showers
12:55 PM -6.2 °F - -9.4 °F 86% 30.33 in 1.5 mi North - - 0.00 in Snow Light Snow Showers
1:05 PM -5.8 °F - -9.4 °F 84% 30.33 in 2.5 mi North - - N/A Snow Light Snow Showers
1:25 PM -5.8 °F - -9.4 °F 84% 30.33 in 2.5 mi North - - N/A   Mostly Cloudy
1:45 PM -7.6 °F - -11.2 °F 84% 30.32 in 2.5 mi North - - N/A   Mostly Cloudy
1:55 PM -6.9 °F - -10.5 °F 84% 30.30 in 2.5 mi North - - N/A   Mostly Cloudy
2:05 PM -5.8 °F - -9.4 °F 84% 30.30 in 3.0 mi North - - N/A   Scattered Clouds
2:25 PM -5.8 °F - -9.4 °F 84% 30.29 in 1.8 mi North - - N/A   Mostly Cloudy
2:45 PM -5.8 °F - -9.4 °F 84% 30.29 in 1.2 mi North - - N/A   Mostly Cloudy
2:55 PM -6.2 °F - -9.9 °F 84% 30.29 in 1.5 mi North - - 0.00 in Snow Light Snow
3:05 PM -5.8 °F - -9.4 °F 84% 30.28 in 1.8 mi North - - N/A Snow Light Snow Showers
3:25 PM -5.8 °F - -9.4 °F 84% 30.27 in 1.5 mi North - - N/A   Mostly Cloudy
3:55 PM -6.9 °F - -10.5 °F 84% 30.26 in 1.0 mi North - - N/A   Mostly Cloudy
4:05 PM -7.6 °F - -11.2 °F 84% 30.27 in 1.0 mi North - - N/A Snow Light Snow Showers
4:45 PM -5.8 °F - -9.4 °F 84% 30.25 in 1.2 mi North - - N/A Snow Light Snow Showers
4:55 PM -6.7 °F - -10.3 °F 84% 30.25 in 1.2 mi North - - 0.00 in Snow Light Snow Showers
5:05 PM -7.6 °F - -11.2 °F 84% 30.24 in 0.8 mi North - - N/A Snow Light Snow Showers
5:25 PM -7.6 °F - -11.2 °F 84% 30.27 in 1.0 mi North - - N/A Snow Light Snow Showers
5:45 PM -7.6 °F - -11.2 °F 84% 30.27 in 1.5 mi North - - N/A   Mostly Cloudy
5:55 PM -7.8 °F - -11.4 °F 84% 30.27 in 3.0 mi North - - N/A   Mostly Cloudy
6:05 PM -7.6 °F - -11.2 °F 84% 30.27 in 3.0 mi North - - N/A   Scattered Clouds
6:25 PM -7.6 °F - -11.2 °F 84% 30.27 in 2.0 mi North - - N/A   Scattered Clouds
6:45 PM -7.6 °F - -11.2 °F 84% 30.28 in 1.8 mi North - - N/A   Mostly Cloudy
6:55 PM -8.1 °F - -11.4 °F 86% 30.27 in 2.5 mi North - - N/A   Mostly Cloudy
7:05 PM -7.6 °F - -11.2 °F 84% 30.26 in 1.2 mi North - - N/A Snow Light Snow
7:25 PM -7.6 °F - -11.2 °F 84% 30.28 in 0.8 mi North - - N/A Snow Light Snow
7:55 PM -6.7 °F - -10.1 °F 85% 30.27 in 1.0 mi North - - 0.00 in Snow Light Snow
8:05 PM -5.8 °F - -9.4 °F 84% 30.27 in 1.5 mi North - - N/A Snow Light Snow
8:25 PM -7.6 °F - -9.4 °F 92% 30.27 in 2.5 mi North - - N/A Snow Light Snow
8:45 PM -5.8 °F - -9.4 °F 84% 30.28 in 1.5 mi North - - N/A Snow Light Snow
8:55 PM -6.9 °F - -10.1 °F 86% 30.27 in 1.0 mi North - - 0.00 in Snow Light Snow
9:45 PM -7.6 °F - -11.2 °F 84% 30.27 in 0.5 mi North - - N/A Snow Light Snow
9:55 PM -7.1 °F - -10.5 °F 85% 30.27 in 0.5 mi North - - 0.00 in Snow Light Snow
10:05 PM -7.6 °F - -11.2 °F 84% 30.27 in 0.8 mi North - - N/A Snow Light Snow
10:45 PM -7.6 °F - -11.2 °F 84% 30.28 in 0.8 mi North - - N/A Snow Light Snow
10:55 PM -7.4 °F - -11.0 °F 84% 30.29 in 1.0 mi North - - 0.00 in Snow Light Snow
11:05 PM -7.6 °F - -11.2 °F 84% 30.28 in 1.2 mi North - - N/A Snow Light Snow
11:25 PM -7.6 °F - -11.2 °F 84% 30.27 in 8.0 mi North - - N/A Snow Light Snow
11:45 PM -7.6 °F - -11.2 °F 84% 30.25 in 8.0 mi North - - N/A   Overcast
11:55 PM -7.6 °F - -11.0 °F 85% 30.25 in 8.0 mi North - - N/A   Overcast